Regional Weather Roundup
Issued by NWS

Home | Current Version | Previous Version | Graphics & Text | Print | Product List | Glossary On
Versions: 1 2 3 4 5 6 7 8 9 10 11 12 13 14 15 16 17 18 19 20 21 22 23 24 25 26 27
000
ASUS45 KCYS 191410
RWRWY

WYOMING REGIONAL WEATHER ROUNDUP
NATIONAL WEATHER SERVICE CHEYENNE WY
700 AM MST MON FEB 19 2018

NOTE:  "FAIR" INDICATES FEW OR NO CLOUDS BELOW 12,000 FEET
WITH NO SIGNIFICANT WEATHER AND/OR OBSTRUCTIONS TO VISIBILITY.

WYZ001-191500-
YELLOWSTONE NATIONAL PARK

CITY           SKY/WX    TMP DP  RH WIND       PRES   REMARKS
LK YELLOWSTONE   N/A     -1  -5  82 CALM      29.44S
W YELLOWSTONE  NOT AVBL

$$
WYZ002>013-054>058-071-098>099-191500-
NORTHERN WYOMING

CITY           SKY/WX    TMP DP  RH WIND       PRES   REMARKS
JACKSON        LGT SNOW  10   6  84 N9        29.46R FOG     WCI  -3
CODY           FLURRIES  -5 -11  75 NE10      29.78F WCI -23
GREYBULL       CLOUDY     0  -5  79 NW14      29.86R WCI -19
WORLAND        FLURRIES   2  -4  76 N7        29.83S WCI -11
SHERIDAN       CLOUDY    -1  -4  87 N6        29.90S WCI -13
BUFFALO        LGT SNOW  -1  -6  79 N3        29.80R
GILLETTE       LGT SNOW  -1  -5  82 N8        29.85R FOG     WCI -15
HULETT         LGT SNOW   1  -6  71 MISG      29.86F
NEWCASTLE      LGT SNOW   1  -2  85 SE8       29.86F WCI -12

$$
WYZ014>020-022>026-101>103-191500-
CENTRAL WYOMING

CITY           SKY/WX    TMP DP  RH WIND       PRES   REMARKS
BIG PINEY      LGT SNOW   9   7  92 SW8       29.42S FOG     WCI  -3
PINEDALE       LGT SNOW  12  10  92 W8        29.40F WCI   1
DUBOIS         NOT AVBL
LANDER         LGT SNOW   1  -3  83 SW3       29.66F VSB 3/4
RIVERTON       LGT SNOW   1  -5  75 E7        29.66F WCI -12
CASPER         SNOW      -3  -6  87 NE16      29.70R VSB 1/2 WCI -24
DOUGLAS        SNOW       1  -3  83 E5        29.75F VSB 1/2 WCI  -9

$$
WYZ021-027>030-104>119-191500-
SOUTHERN WYOMING

CITY           SKY/WX    TMP DP  RH WIND       PRES   REMARKS
EVANSTON       LGT SNOW  19  15  84 NE8       29.35S FOG     WCI   9
FORT BRIDGER   LGT SNOW  12  12 100 SE10      29.40S WCI  -1
ROCK SPRINGS   LGT SNOW   3  -3  76 NE18G25   29.43S VSB 3/4 WCI -17
DIXON          LGT SNOW  11   8  87 W13       29.39R WCI  -3
RAWLINS        HAZE      -1  -6  79 NE18      29.43R VSB 1/2 WCI -22
SARATOGA       LGT SNOW   5   5 100 W9        29.37F VSB 3/4 WCI  -9
LARAMIE        LGT SNOW   4   1  88 SE31G38   29.41S VSB 1   WCI -21
CHEYENNE       CLOUDY     3   1  91 NE3       29.63S
TORRINGTON     FLURRIES   4  -1  80 NE9       29.83R WCI -10
PINE BLUFFS    CLOUDY     5   1  85 N7        29.73R WCI  -7

$$




USA.gov is the U.S. government's official web portal to all federal, state and local government web resources and services.